Погода в Павелеце

Погода в Павелеце : погода сейчас, прогноз погоды и архив. Всё, что Вы хотите узнать о погоде в Павелеце!

Поиск расширенной информации на нашем сайте:

Другие новости

Новости СМИ2

Главная страница сайта

Новости сайта

03.07.2017

Напоминаем, что на нашем специализированном сайте Метеоцентр.Азия вы можете получить высокодетализированные автоматические прогнозы погоды по пунктам России, СНГ и мира в авиационном формате (включающие направление и скорость ветра, видимость, явления погоды, количество и форму облачности, нижнюю и верхнюю границу облачности).


Погода в Павелеце - сегодня

Время (UTC), дата Ветер
(°,м/с) 
Видим.   Явления Облачность Т
(°С)
Тd
(°С)
f(%) Тe
(°С)
Pmin
(гПа)
dP
(гПа)
Po
(мм)
O2
(г/м3)
Тmin Tmax R s Состояние
почвы
12 20.10.17 340 (С) 20000 м    8/6 600 м кучево-дожд., верхняя 
[Cb calv|Ci fib]
+7.3 +0.5 62 +7  1021.1  -0.4  747  293           
15 20.10.17 тихо ()   20000 м    8/8 300 м верхняя 
[Sc diur, vesp|Ci fib]
+4.2 +0.2 75 +4  1021.4  747  296    +9.1       
18 20.10.17 330 (СЗ) 20000 м    6/0 средняя 
[Ac trans]
+3.3 +0.3 81 +4  1021.9  0.4  747  297           
21 20.10.17 270 (З) 20000 м    4/0 верхняя 
[Ci fib]
-0.4 -1.3 94 1021.9  -0.3  747  301           
00 21.10.17 220 (ЮЗ) 20000 м    ясно 
-1.7 -2.4 95 -1  1021.4  -0.6  746  303           
03 21.10.17 тихо ()   20000 м    ясно 
-2.9 -3.4 96 -3  1020.8  -0.7  746  304  -3.3         
06 21.10.17 тихо ()   20000 м    9/5 600 м средняя, верхняя 
[Cu med, cong|Ac lent|Ci fib]
+0.9 -0.2 92 +1  1020.3  -0.2  746  299           
09 21.10.17 340 (С) 20000 м    9/3 600 м средняя, верхняя 
[Cu med, cong|Ac cast|Ci fib]
+4.4 +1 79 +4  1019.5  -0.4  745  295           
12 21.10.17 300 (СЗ) 20000 м    8/6 600 м кучево-дожд., верхняя 
[Cb cap|Ci fib]
+3.4 -0.3 77 +3  1018.5  -1  745  296           
15 21.10.17 тихо ()   20000 м  {ливн. осадки}  6/0 средняя, верхняя 
[Ac lent|Ci fib]
+0.3 -1 91 1018.6  -0.3  744  300    +7  0.3     
18 21.10.17 330 (СЗ) 20000 м  {ливн. осадки}  6/0 средняя, верхняя 
[Ac trans|Ci fib]
-1.5 -1.9 97 -1  1018.6  0.1  744  302           
21 21.10.17 тихо ()   20000 м    10/0 средняя, верхняя 
[Ac trans|Ci fib]
-0.8 -1.4 96 -1  1018.3  -0.3  744  301           
00 22.10.17 360 (С) 20000 м    4/0 верхняя 
[Ci fib]
-1.3 -2.2 94 -2  1018  -0.3  744  301           
03 22.10.17 340 (С) 20000 м    6/0 средняя 
[Ac trans]
-2.4 -2.9 96 -2  1018.2  0.1  744  303  -3.3         
06 22.10.17 350 (С) 20000 м  слаб. ливневой снег  10/8 600 м кучево-дожд., верхняя 
[Cb cap|Ci sp]
-0.6 -1.6 93 -2  1018.5  0.5  744  301           
09 22.10.17 010 (С) 20000 м  слаб. крупа{ливн. осадки}  10/8 600 м кучево-дожд., верхняя 
[Cb cap|Ci fib]
+0.6 -2.4 80 1018.8  0.4  744  300           
12 22.10.17 340 (С) 20000 м  {ливн. осадки}  10/8 600 м кучево-дожд., верхняя 
[Cb cap|Ci sp]
+1.1 -3.8 70 +2  1018.9  0.2  745  299           
15 22.10.17 тихо ()   20000 м    8/0 средняя, верхняя 
[Cu hum|Ac trans|Ci fib]
-1.7 -5.2 77 -2  1019.6  0.6  745  303    +1.5  0.0     
18 22.10.17 280 (З) 20000 м    4/0 верхняя 
[Ci fib]
-4.6 -5.6 93 -4  1020  0.1  745  306           
21 22.10.17 270 (З) 20000 м    3/0 верхняя 
[Ci fib]
-6 -6.6 95 -6  1020.4  0.3  745  308           
00 23.10.17 240 (ЮЗ) 20000 м    4/0 верхняя 
[Ci fib]
-5.7 -6.7 93 -7  1020.3  -0.2  745  307           
03 23.10.17 250 (З) 20000 м    10/0 верхняя 
[Ci]
-3.7 -5.5 87 -6  1019.9  -0.1  745  305  -6.3         
06 23.10.17 250 (З) 20000 м    8/0 средняя, верхняя 
[Ac trans|Ci fib]
-2 -4.2 85 -4  1019.9  -0.1  745  303           
09 23.10.17 280 (З) 20000 м    10/4 600 м средняя 
[Cu hum|Ac trans]
+1.6 -4.3 65 +1  1020.2  0.6  746  299           
12 23.10.17 320 (СЗ) 20000 м    10/4 600 м кучево-дожд., средняя 
[Cb calv|Ac trans]
+1.4 -4.1 67 +2  1021.4  1.1  746  300           
Время (UTC), дата Ветер
(°,м/с) 
Видим.   Явления Облачность Т
(°С)
Тd
(°С)
f(%) Тe
(°С)
Pmin
(гПа)
dP
(гПа)
Po
(мм)
O2
(г/м3)
Тmin Tmax R s Состояние
почвы

Для получения пояснительной информации подведите курсор к названию столбца.

ПОГОДА в Павелеце - архив

Всё, что Вы хотите узнать о погоде в Павелеце - удобно и подробно!

Выберите нужную дату (начиная с 1 января 2015* года) и нажмите кнопку "Найти".
Будут отображены архивные сводки погоды по пункту Павелец, начиная с указанной даты.


Отображать данные в формате CSV (для использования в таблицах Excel)


Внимание! Наш архив погоды предназначен исключительно для личного некоммерческого использования в познавательных целях. Если Вам необходимы официальные справки о состоянии погоды (для производственных, юридических, коммерческих и т.п. целей), обращайтесь в органы Росгидромета.

*Примечание: данная дата относится к архиву по метеостанциям СССР (Россия, СНГ, Балтия).
Архив по метеостанциям Зарубежной Европы и Азии (кроме Китая) хранится 10 дней, по другим регионам земного шара (Китай, Африка, Америка, Австралия, Океания) - 1 день.

Павелец - район местоположения метеостанции


Название, широта, долгота, высота метеостанции:
Павелец 53.8°ш. 39.2°д. 209 м над ур. моря [Российская Федерация]

Дополнительная информация

В oтличие oт бoльшинства пoгoдных сайтoв мы публикуем пoдрoбную метеoинфoрмацию в детальнoм прoфессиoнальнoм фoрмате.

Характеристики температуры и влажнoсти вoздуха измеряются на высoте 2 м в тени вдали oт зданий и деревьев.
Скoрoсть ветра измеряется на высoте 10 м (на урoвне рoста челoвека скoрoсть ветра ниже в 1.5-2 раза). Если метеoстанция нахoдится в гoрoде или в лесу, тo скoрoсть ветра занижена на 2-4 м/с пo сравнению с oткрытым местoм. Скoрoсть ветра над акватoриями крупных рек и oзёр, а также на вершинах хoлмoв на 2-5 м/с выше, чем в oбычных услoвиях.
Атмoсфернoе давление в разных тoчках местнoсти мoжет значительнo oтличаться oт давления на метеoстанции, в зависимoсти oт услoвий рельефа (при пoдъёме на 10 м давление пoнижается примернo на 1 мм рт.ст.).